Location: Los Gatos B&B
(42.6926°N, 77.0646°W)
Time: 18:15:12
(UTC-04:00)

SL-16 R/B - Visible Passes

Search period start: 16 October 2017 00:00
Search period end: 26 October 2017 00:00
Orbit: 841 x 848 km, 71.0° (Epoch: 16 October)

Date Brightness Start Highest point End Pass type
(mag) Time Alt. Az. Time Alt. Az. Time Alt. Az.
16 Oct 4.1 21:00:50 10° N 21:02:44 18° NNE 21:02:44 18° NNE visible
16 Oct 5.1 22:44:23 10° NNW 22:44:36 11° NNW 22:44:36 11° NNW visible
17 Oct 4.0 20:46:47 10° N 20:49:03 19° NNE 20:49:03 19° NNE visible
17 Oct 4.9 22:30:18 10° NNW 22:30:56 13° NW 22:30:56 13° NW visible
18 Oct 3.8 20:32:44 10° N 20:35:24 20° NNE 20:35:24 20° NNE visible
18 Oct 4.7 22:16:12 10° NNW 22:17:17 16° NW 22:17:17 16° NW visible
19 Oct 3.7 20:18:42 10° N 20:21:48 21° NNE 20:21:48 21° NNE visible
19 Oct 4.5 22:02:07 10° NNW 22:03:42 19° NW 22:03:42 19° NW visible
20 Oct 3.6 20:04:39 10° N 20:08:15 22° NE 20:08:15 22° NE visible
20 Oct 4.2 21:48:00 10° NNW 21:50:09 23° NW 21:50:09 23° NW visible
21 Oct 3.5 19:50:37 10° N 19:54:46 22° NE 19:54:46 22° NE visible
21 Oct 3.8 21:33:55 10° NNW 21:36:39 29° NW 21:36:39 29° NW visible
22 Oct 3.5 19:36:34 10° N 19:40:50 21° NE 19:41:20 21° ENE visible
22 Oct 3.4 21:19:50 10° NNW 21:23:15 37° NW 21:23:15 37° NW visible
23 Oct 3.5 19:22:31 10° N 19:26:43 21° NE 19:28:00 19° ENE visible
23 Oct 2.9 21:05:45 10° NNW 21:09:55 49° NW 21:09:55 49° NW visible
24 Oct 3.5 19:08:29 10° N 19:12:37 20° NE 19:14:48 16° ENE visible
24 Oct 2.4 20:51:39 10° NNW 20:56:42 66° WNW 20:56:42 66° WNW visible
25 Oct 3.6 18:54:27 10° N 18:58:30 19° NE 19:01:44 13° E visible
25 Oct 2.2 20:37:33 10° NNW 20:43:15 75° WSW 20:43:39 71° SSW visible
